星链-32441 (STARLINK-32441)

导读

STARLINK-32441是美国SpaceX公司“星链”(Starlink)星座的第二代低轨通信卫星,于2024年10月26日发射入轨,属于全球规模最大卫星互联网星座的一员。作为星链第二代组网卫星,它采用先进的相控阵天线与激光星间链路技术,可提供高速宽带通信服务,拓展全球偏远地区网络覆盖,同时支持航空、航海及应急通信场景,服役寿命结束后会主动离轨在大气层焚毁,降低空间垃圾风险。

基本信息
目录编号:
61668
目录名称:
STARLINK-32441
国际标识:
2024-193H
轨道中心:
EARTH
卫星名称:
星链-32441
卫星全名:
星链-32441 (STARLINK-32441)
卫星状态:
在轨 (已飞行599 天)
发射日期:
2024-10-26 UTC
国别 :
美国 (US)
星等 :
--
轨道信息
数据来源 国际轨道数据
星历时间: 2026-06-17T13:16:50+0800
15小时前
查看轨道信息
半长轴: 6853.378km
偏心率: 0.0001285
轨道倾角: 53.163°
近地点辐角 95.625°
升交点赤经 348.807°
平近点角 264.490°
近地点: 474.36km
远地点: 476.122km
周期: 94.106分钟
每日圈数: 15.301915
详细信息
固有亮度:
5
最大亮度:
2.5
卫星平台:
Starlink V1.0
覆盖范围:
全球
运营商:
太空探索技术公司
运营商所在国:
美国
制造商(研发单位):
太空探索技术公司
制造商所在国:
美国
使用方式:
暂无
卫星简介
Starlink 计划是 SpaceX 推出的全球卫星互联网项目,通过发射低轨道卫星,为全球尤其是偏远地区提供高速、低延迟的互联网服务。自 2019 年起,Starlink 已部署数千颗卫星,旨在缩小全球数字鸿沟,推动互联网普及。该项目还为军事、航空等行业提供通信支持,带来广泛经济效益。
2D轨道图
3D轨道图
轨道高度分析图
轨道倾角分析图
轨道综合分析图
查看轨道综合分析图